Weather History for Sault Ste Marie, MI

Change the Weather History Date:

Friday, April 4, 2014

  Actual Average Record
Temperature  
Mean Temperature 30 °F 35 °F  
Max Temperature 38 °F 43 °F 67 °F (1981)
Min Temperature 22 °F 26 °F 2 °F (1923)
Degree Days  
Heating Degree Days 35 30  
Month to date heating degree days 149 124  
Since 1 July heating degree days 8363 7450  
Cooling Degree Days 0 0  
Month to date cooling degree days 0 0  
Year to date cooling degree days 0 0  
Moisture  
Dew Point 27 °F    
Average Humidity 72    
Maximum Humidity 92    
Minimum Humidity 52    
Precipitation  
Precipitation 0.54 in 0.08 in 0.89 in (1989)
Month to date precipitation 0.69 0.33  
Year to date precipitation 5.76 5.81  
Snow  
Snow 3.30 in 0.40 in 8.30 in (1940)
Month to date snowfall 4.4 1.4  
Since 1 July snowfall 128.7 115.0  
Snow Depth 26.00 in    
Sea Level Pressure  
Sea Level Pressure 29.57 in    
Wind  
Wind Speed 10 mph (NE)    
Max Wind Speed 18 mph    
Max Gust Speed 28 mph    
Visibility 6 miles    
Events Fog , Rain , Snow    
T = Trace of Precipitation, MM = Missing Value Source: NWS Daily Summary

Daily Weather History Graph

Daily Weather History Graph

Search for Another Location

Airport:

Trip Planner

Search our weather history database for the weather conditions in past years. The results will help you decide how hot, cold, wet, or windy it might be!

Date:

Astronomy

Apr. 04, 2014 Rise Set
Actual Time 7:11 AM EDT 8:10 PM EDT
Civil Twilight 6:40 AM EDT 8:41 PM EDT
Nautical Twilight 6:03 AM EDT 9:18 PM EDT
Astronomical Twilight 5:25 AM EDT 9:56 PM EDT
Moon 10:14 AM EDT (4/4) 12:40 AM EDT (4/4)
Length of Visible Light 14h 00m
Length of Day
12h 59m
Waxing Crescent, 25% of the Moon is Illuminated
Apr 4
Waxing Crescent
Apr 7
First Quarter
Apr 15
Full
Apr 22
Last Quarter
Apr 29
New

Hourly Weather History & Observations

Time (EDT) Temp. Windchill Dew Point Humidity Pressure Visibility Wind Dir Wind Speed Gust Speed Precip Events Conditions
12:55 AM 37.0 °F 31.6 °F 21.9 °F 54% 29.97 in 10.0 mi East 6.9 mph - N/A   Overcast
1:55 AM 37.0 °F 30.4 °F 21.9 °F 54% 29.95 in 10.0 mi East 9.2 mph - N/A   Overcast
2:55 AM 37.0 °F 28.9 °F 23.0 °F 57% 29.89 in 10.0 mi East 12.7 mph 20.7 mph N/A   Overcast
3:55 AM 37.0 °F 28.9 °F 23.0 °F 57% 29.86 in 10.0 mi East 12.7 mph 20.7 mph N/A   Overcast
4:55 AM 37.0 °F 28.5 °F 21.9 °F 54% 29.82 in 10.0 mi East 13.8 mph 23.0 mph N/A   Overcast
5:55 AM 36.0 °F 26.7 °F 21.9 °F 57% 29.76 in 10.0 mi East 15.0 mph 24.2 mph N/A   Overcast
6:55 AM 36.0 °F 28.5 °F 23.0 °F 59% 29.73 in 10.0 mi East 10.4 mph 20.7 mph N/A   Overcast
7:55 AM 36.0 °F 27.5 °F 21.9 °F 57% 29.68 in 10.0 mi East 12.7 mph 21.9 mph N/A   Overcast
8:55 AM 36.0 °F 28.5 °F 23.0 °F 59% 29.67 in 10.0 mi East 10.4 mph 18.4 mph N/A   Overcast
9:38 AM 35.1 °F 25.9 °F 24.1 °F 64% 29.60 in 10.0 mi East 13.8 mph 21.9 mph 0.00 in   Overcast
9:55 AM 35.1 °F 26.9 °F 24.1 °F 64% 29.62 in 10.0 mi ESE 11.5 mph 21.9 mph 0.00 in Rain Light Rain
10:46 AM 33.1 °F 26.1 °F 28.0 °F 82% 29.61 in 1.8 mi East 8.1 mph - 0.07 in Rain Rain
10:55 AM 32.0 °F 23.6 °F 28.0 °F 85% 29.60 in 1.5 mi ENE 10.4 mph - 0.09 in   Overcast
11:16 AM 32.0 °F 24.8 °F 28.9 °F 88% 29.58 in 1.5 mi East 8.1 mph - 0.06 in   Overcast
11:35 AM 32.0 °F 24.2 °F 28.9 °F 88% 29.57 in 2.5 mi East 9.2 mph - 0.09 in   Overcast
11:43 AM 32.0 °F 27.5 °F 28.9 °F 88% 29.59 in 2.0 mi ENE 4.6 mph - 0.09 in   Overcast
11:52 AM 32.0 °F - 30.2 °F 93% 29.60 in 1.2 mi Calm Calm - 0.10 in Snow Light Snow
11:55 AM 32.0 °F - 30.0 °F 92% 29.62 in 1.0 mi Calm Calm - 0.11 in Snow Light Snow
12:02 PM 32.0 °F 27.5 °F 28.9 °F 88% 29.58 in 0.5 mi ENE 4.6 mph - 0.02 in Fog , Snow Light Snow
12:32 PM 32.0 °F 25.6 °F 30.9 °F 96% 29.56 in - ENE 6.9 mph - 0.08 in Snow Heavy Snow
12:55 PM 32.0 °F 26.4 °F 30.0 °F 92% 29.57 in - ESE 5.8 mph - 0.12 in Snow Heavy Snow
1:55 PM 32.0 °F 27.5 °F 30.0 °F 92% 29.55 in - Variable 4.6 mph - 0.08 in Snow Heavy Snow
2:55 PM 32.0 °F 25.6 °F 30.9 °F 96% 29.46 in - ENE 6.9 mph - 0.08 in Snow Snow
3:03 PM 32.0 °F 26.4 °F 30.9 °F 96% 29.44 in - ENE 5.8 mph - 0.00 in Snow Light Snow
3:32 PM 33.1 °F 28.7 °F 30.9 °F 92% 29.43 in - East 4.6 mph - 0.02 in Snow Snow
3:55 PM 33.1 °F 25.5 °F 30.9 °F 92% 29.40 in - ENE 9.2 mph - 0.04 in Snow Snow
4:17 PM 33.1 °F 27.7 °F 30.9 °F 92% 29.42 in - Variable 5.8 mph - 0.01 in Snow Light Snow
4:41 PM 33.1 °F 25.5 °F 30.9 °F 92% 29.36 in - NE 9.2 mph - 0.01 in Rain Light Rain
4:55 PM 33.1 °F 27.7 °F 30.9 °F 92% 29.39 in - NE 5.8 mph - 0.01 in Rain Light Rain
5:07 PM 34.0 °F 29.8 °F 30.0 °F 85% 29.40 in - NE 4.6 mph - 0.00 in Rain Light Rain
5:55 PM 34.0 °F 27.2 °F 30.0 °F 85% 29.43 in - WNW 8.1 mph - 0.00 in Snow Light Snow
6:16 PM 33.1 °F 26.9 °F 28.9 °F 85% 29.42 in - North 6.9 mph - 0.00 in Snow Light Snow
6:51 PM 32.0 °F 24.8 °F 28.4 °F 87% 29.44 in - North 8.1 mph - 0.01 in   Overcast
6:55 PM 32.0 °F 23.6 °F 28.0 °F 85% 29.46 in - North 10.4 mph - 0.01 in   Overcast
7:55 PM 30.9 °F 22.8 °F 26.1 °F 82% 29.44 in - North 9.2 mph - 0.00 in Snow Light Snow
8:10 PM 30.9 °F 24.3 °F 26.1 °F 82% 29.44 in - North 6.9 mph - 0.00 in   Overcast
8:55 PM 30.9 °F 23.5 °F 26.1 °F 82% 29.52 in - NNW 8.1 mph - 0.00 in Snow Light Snow
9:08 PM 30.0 °F 21.1 °F 26.1 °F 85% 29.48 in - North 10.4 mph - 0.00 in Snow Light Snow
9:32 PM 30.0 °F 20.5 °F 25.0 °F 82% 29.47 in - North 11.5 mph 18.4 mph 0.00 in Snow Light Snow
9:55 PM 30.0 °F 21.1 °F 24.1 °F 79% 29.50 in - North 10.4 mph 19.6 mph 0.00 in Snow Light Snow
10:55 PM 28.0 °F 18.6 °F 25.0 °F 88% 29.52 in - WNW 10.4 mph - 0.00 in Snow Light Snow
11:02 PM 27.0 °F 16.7 °F 24.1 °F 89% 29.50 in - WNW 11.5 mph - 0.00 in Snow Light Snow
11:12 PM 26.1 °F 16.2 °F 23.0 °F 88% 29.50 in - NW 10.4 mph - 0.00 in Snow Light Snow
11:39 PM 24.1 °F 12.0 °F 19.0 °F 81% 29.57 in - NNW 13.8 mph 21.9 mph 0.00 in Snow Light Snow
11:55 PM 23.0 °F 8.7 °F 18.0 °F 81% 29.61 in - NNW 18.4 mph 21.9 mph 0.00 in Snow Light Snow